カタログに戻る

GALILEO 7 (263)

運用中ナビゲーションMEO
NORAD 40544·PAYLOAD·🇪🇺 EU

打ち上げ Mar 27, 2015 から Guiana Space Centre

Loading…

次のパス (今後24時間)

TLE

最新Source: CelesTrak SupGP

元期: Sep 14, 2026, 23:59 UTC

1 40544C 15017A   26257.99979167  .00000000  00000+0  00000+0 0  2575
2 40544  56.7500 339.1477 0004769 254.0595 130.3830  1.70476673    12

AllMySatでGALILEO 7 (263)をリアルタイム追跡

Download on the App Store